User: anonymous   Login
Location: Unspecified
(0.0000°N, 0.0000°E)
Time: 21:58:12
(UTC+00:00)
Language:

AOBA-VELOX 3 - Orbit

View from above orbital plane
View from above orbital plane
View from above satellite
View from above satellite

Ground track
Ground track

The orbit data is extracted from the following two-line orbital elements,

1 41935U 98067KX  17082.90121594 +.00013688 +00000-0 +19496-3 0  9999
2 41935 051.6459 102.7383 0006338 333.5450 026.5346 15.56628232010345
Epoch (UTC): 23 March 2017 21:37:45
Eccentricity: 0.0006338
inclination: 51.6459°
perigee height: 393 km
apogee height: 402 km
right ascension of ascending node: 102.7383°
argument of perigee: 333.5450°
revolutions per day: 15.56628232
mean anomaly at epoch: 26.5346°
orbit number at epoch: 1034

The dashed part of the orbit path shows where the satellite is in the earth's shadow,  

DLR